Location: Chuathbaluk
(61.5726°N, 159.2454°W)
Time: 23:56:38
(UTC+00:00)

Explorer 7 - All Passes

Search period start: 05 December 2020 00:00
Search period end: 15 December 2020 00:00
Orbit: 484 x 678 km, 50.3° (Epoch: 05 December)

Date Brightness Start Highest point End Pass type
(mag) Time Alt. Az. Time Alt. Az. Time Alt. Az.
05 Dec - 11:20:51 10° SSW 11:23:40 16° SSE 11:26:25 10° SE night (unlit)
05 Dec - 12:59:54 10° SW 13:03:08 19° S 13:06:15 10° SE night (unlit)
05 Dec - 14:40:21 10° SW 14:42:31 14° SSW 14:44:37 10° S visible
06 Dec - 11:24:52 10° SSW 11:27:59 18° SSE 11:31:01 10° SE night (unlit)
06 Dec - 13:04:18 10° SW 13:07:29 19° S 13:10:32 10° SE night (unlit)
06 Dec - 14:45:25 10° SW 14:46:46 11° SSW 14:48:04 10° SSW night (unlit)
07 Dec - 09:50:57 10° S 09:52:56 13° SSE 09:54:53 10° SE night (unlit)
07 Dec - 11:29:00 10° SW 11:32:19 19° S 11:35:31 10° SE night (unlit)
07 Dec - 13:08:47 10° SW 13:11:47 18° SSW 13:14:42 10° SSE night (unlit)
08 Dec - 09:54:32 10° SSW 09:57:12 15° SSE 09:59:49 10° SE night (unlit)
08 Dec - 11:33:15 10° SW 11:36:39 20° S 11:39:55 10° SE night (unlit)
08 Dec - 13:13:22 10° WSW 13:16:05 16° SSW 13:18:43 10° SSE night (unlit)
09 Dec - 09:58:24 10° SSW 10:01:30 17° SSE 10:04:30 10° ESE night (unlit)
09 Dec - 11:37:35 10° SW 11:40:59 20° S 11:44:15 10° SE night (unlit)
09 Dec - 13:18:06 10° SW 13:20:21 14° SSW 13:22:32 10° S night (unlit)
10 Dec - 08:25:09 10° SSE 08:26:29 11° SSE 08:27:48 10° SE night (unlit)
10 Dec - 10:02:28 10° SSW 10:05:48 19° S 10:09:03 10° SE night (unlit)
10 Dec - 11:42:00 10° SW 11:45:18 19° S 11:48:29 10° SE night (unlit)
10 Dec - 13:23:13 10° SW 13:24:35 11° SSW 13:25:55 10° SSW night (unlit)
11 Dec - 08:28:20 10° S 08:30:43 14° SSE 08:33:04 10° SE night (unlit)
11 Dec - 10:06:39 10° SW 10:10:07 20° S 10:13:30 10° SE night (unlit)
11 Dec - 11:46:29 10° WSW 11:49:37 18° SSW 11:52:38 10° SSE night (unlit)
12 Dec - 08:32:02 10° SSW 08:34:58 16° SSE 08:37:52 10° ESE night (unlit)
12 Dec - 10:10:54 10° SW 10:14:27 21° S 10:17:53 10° SE night (unlit)
12 Dec - 11:51:05 10° WSW 11:53:54 16° SSW 11:56:37 10° SSE night (unlit)
13 Dec - 08:35:59 10° SSW 08:39:16 18° SSE 08:42:29 10° ESE night (unlit)
13 Dec - 10:15:15 10° SW 10:18:47 21° S 10:22:11 10° SE night (unlit)
13 Dec - 11:55:50 10° SW 11:58:08 14° SSW 12:00:23 10° S night (unlit)
14 Dec - 07:02:20 10° S 07:04:13 12° SSE 07:06:05 10° SE night (unlit)
14 Dec - 08:40:04 10° SW 08:43:34 20° S 08:46:59 10° SE night (unlit)
14 Dec - 10:19:40 10° WSW 10:23:05 20° SSW 10:26:23 10° SE night (unlit)
14 Dec - 12:01:01 10° SW 12:02:21 11° SSW 12:03:41 10° SSW night (unlit)
